TimeCST,TemperatureF,Dew PointF,Humidity,Sea Level PressureIn,VisibilityMPH,Wind Direction,Wind SpeedMPH,Gust SpeedMPH,PrecipitationIn,Events,Conditions,WindDirDegrees,DateUTC
12:15 AM,57.9,40.3,52,30.05,10.0,NNE,15.0,-,N/A,,Clear,20,2014-02-21 06:15:00
12:35 AM,57.0,41.0,55,30.06,10.0,NNE,12.7,-,N/A,,Clear,20,2014-02-21 06:35:00
12:55 AM,56.3,41.5,58,30.06,10.0,NNE,15.0,-,N/A,,Clear,30,2014-02-21 06:55:00
1:15 AM,55.2,42.1,61,30.07,10.0,NNE,11.5,-,N/A,,Clear,20,2014-02-21 07:15:00
1:35 AM,54.5,41.2,61,30.08,10.0,NNE,11.5,-,N/A,,Clear,20,2014-02-21 07:35:00
1:55 AM,53.2,41.4,64,30.09,10.0,NNE,5.8,-,N/A,,Clear,20,2014-02-21 07:55:00
2:15 AM,52.0,40.3,64,30.09,10.0,NNE,8.1,-,N/A,,Clear,30,2014-02-21 08:15:00
2:35 AM,54.1,39.0,57,30.10,10.0,NNE,12.7,18.4,N/A,,Clear,30,2014-02-21 08:35:00
2:55 AM,54.0,39.2,57,30.10,10.0,NNE,12.7,21.9,N/A,,Clear,30,2014-02-21 08:55:00
3:15 AM,53.2,40.1,61,30.10,10.0,NNE,13.8,-,N/A,,Clear,30,2014-02-21 09:15:00
3:35 AM,52.2,40.6,65,30.11,10.0,NE,10.4,-,N/A,,Clear,40,2014-02-21 09:35:00
3:55 AM,50.7,41.0,69,30.11,10.0,NE,9.2,-,N/A,,Clear,40,2014-02-21 09:55:00
4:15 AM,50.2,41.2,71,30.11,10.0,NE,9.2,-,N/A,,Clear,40,2014-02-21 10:15:00
4:35 AM,50.0,41.0,71,30.12,10.0,NNE,9.2,-,N/A,,Clear,30,2014-02-21 10:35:00
4:55 AM,49.1,40.8,73,30.13,10.0,NNE,6.9,-,N/A,,Clear,30,2014-02-21 10:55:00
5:15 AM,47.7,40.3,76,30.13,10.0,NNE,5.8,-,N/A,,Clear,30,2014-02-21 11:15:00
5:35 AM,45.9,39.7,79,30.14,10.0,NNE,3.5,-,N/A,,Clear,20,2014-02-21 11:35:00
5:55 AM,45.7,38.5,76,30.14,10.0,North,4.6,-,N/A,,Clear,10,2014-02-21 11:55:00
6:15 AM,44.8,39.0,80,30.15,10.0,NNE,5.8,-,N/A,,Clear,20,2014-02-21 12:15:00
6:35 AM,44.6,38.8,80,30.15,10.0,NNE,5.8,-,N/A,,Clear,20,2014-02-21 12:35:00
6:55 AM,43.9,39.2,84,30.16,10.0,NNE,6.9,-,N/A,,Clear,30,2014-02-21 12:55:00
7:15 AM,44.4,39.9,84,30.16,10.0,ENE,5.8,-,N/A,,Clear,60,2014-02-21 13:15:00
7:35 AM,49.6,40.8,72,30.16,10.0,ENE,9.2,-,N/A,,Clear,70,2014-02-21 13:35:00
7:55 AM,51.4,42.3,71,30.17,10.0,ENE,8.1,-,N/A,,Clear,70,2014-02-21 13:55:00
8:15 AM,54.3,42.6,65,30.18,10.0,ENE,8.1,-,N/A,,Clear,70,2014-02-21 14:15:00
8:35 AM,56.3,41.9,59,30.19,10.0,East,10.4,-,N/A,,Clear,80,2014-02-21 14:35:00
8:55 AM,57.2,41.7,56,30.19,10.0,ENE,10.4,-,N/A,,Clear,70,2014-02-21 14:55:00
9:15 AM,58.1,41.4,54,30.19,10.0,ENE,10.4,-,N/A,,Clear,70,2014-02-21 15:15:00
9:35 AM,59.2,41.0,51,30.19,10.0,ENE,13.8,17.3,N/A,,Clear,70,2014-02-21 15:35:00
9:55 AM,60.3,36.0,40,30.19,10.0,East,15.0,-,N/A,,Clear,80,2014-02-21 15:55:00
10:15 AM,61.7,34.9,37,30.19,10.0,East,12.7,-,N/A,,Clear,90,2014-02-21 16:15:00
10:35 AM,62.8,33.4,33,30.19,10.0,East,16.1,-,N/A,,Clear,80,2014-02-21 16:35:00
10:55 AM,64.2,33.1,31,30.19,10.0,East,13.8,-,N/A,,Clear,80,2014-02-21 16:55:00
11:15 AM,64.6,31.5,29,30.19,10.0,East,15.0,-,N/A,,Clear,90,2014-02-21 17:15:00
11:35 AM,65.8,32.0,28,30.19,10.0,East,16.1,20.7,N/A,,Clear,80,2014-02-21 17:35:00
11:55 AM,66.2,36.0,33,30.18,10.0,SE,13.8,-,N/A,,Clear,130,2014-02-21 17:55:00
12:15 PM,65.5,34.2,31,30.18,10.0,ESE,15.0,-,N/A,,Clear,110,2014-02-21 18:15:00
12:35 PM,65.3,34.2,31,30.17,10.0,SE,16.1,-,N/A,,Clear,140,2014-02-21 18:35:00
12:55 PM,64.9,33.4,31,30.15,10.0,SE,17.3,23.0,N/A,,Clear,130,2014-02-21 18:55:00
1:15 PM,65.1,34.2,32,30.14,10.0,ESE,17.3,-,N/A,,Clear,120,2014-02-21 19:15:00
1:35 PM,64.9,33.3,31,30.14,10.0,ESE,18.4,-,N/A,,Clear,120,2014-02-21 19:35:00
1:55 PM,65.1,32.0,29,30.12,10.0,SE,19.6,-,N/A,,Clear,130,2014-02-21 19:55:00
2:15 PM,63.7,35.1,34,30.11,10.0,ESE,17.3,-,N/A,,Clear,110,2014-02-21 20:15:00
2:35 PM,65.1,33.8,31,30.10,10.0,ESE,18.4,-,N/A,,Clear,110,2014-02-21 20:35:00
2:55 PM,65.5,32.2,29,30.10,10.0,ESE,19.6,24.2,N/A,,Clear,120,2014-02-21 20:55:00
3:15 PM,64.9,31.3,28,30.10,10.0,ESE,16.1,-,N/A,,Clear,110,2014-02-21 21:15:00
3:35 PM,63.7,30.7,29,30.09,10.0,ESE,16.1,-,N/A,,Clear,120,2014-02-21 21:35:00
3:55 PM,62.8,34.7,35,30.09,10.0,ESE,19.6,23.0,N/A,,Clear,120,2014-02-21 21:55:00
4:15 PM,63.0,36.1,37,30.08,10.0,SE,19.6,23.0,N/A,,Clear,130,2014-02-21 22:15:00
4:35 PM,61.7,36.0,38,30.08,10.0,ESE,17.3,-,N/A,,Clear,120,2014-02-21 22:35:00
4:55 PM,60.8,35.8,39,30.08,10.0,ESE,15.0,20.7,N/A,,Clear,120,2014-02-21 22:55:00
5:15 PM,59.9,37.4,43,30.08,10.0,ESE,16.1,-,N/A,,Clear,120,2014-02-21 23:15:00
5:35 PM,59.0,39.7,49,30.08,10.0,ESE,12.7,-,N/A,,Clear,120,2014-02-21 23:35:00
5:55 PM,58.6,39.0,48,30.08,10.0,ESE,11.5,-,N/A,,Clear,120,2014-02-21 23:55:00
6:15 PM,58.1,38.8,49,30.08,10.0,ESE,10.4,-,N/A,,Clear,120,2014-02-22 00:15:00
6:35 PM,56.8,39.6,52,30.08,10.0,ESE,9.2,-,N/A,,Clear,110,2014-02-22 00:35:00
6:55 PM,56.1,41.2,57,30.08,10.0,ESE,9.2,-,N/A,,Clear,110,2014-02-22 00:55:00
7:15 PM,55.9,40.5,56,30.08,10.0,ESE,8.1,-,N/A,,Clear,110,2014-02-22 01:15:00
7:35 PM,55.0,41.0,59,30.08,10.0,ESE,5.8,-,N/A,,Clear,110,2014-02-22 01:35:00
7:55 PM,54.5,41.0,60,30.08,10.0,ESE,6.9,-,N/A,,Clear,110,2014-02-22 01:55:00
8:15 PM,54.5,41.5,62,30.08,10.0,ESE,8.1,-,N/A,,Clear,120,2014-02-22 02:15:00
8:35 PM,54.7,41.9,62,30.09,10.0,ESE,8.1,-,N/A,,Clear,120,2014-02-22 02:35:00
8:55 PM,54.1,42.8,66,30.09,10.0,ESE,6.9,-,N/A,,Clear,110,2014-02-22 02:55:00
9:15 PM,54.9,42.8,64,30.08,10.0,ESE,8.1,-,N/A,,Clear,110,2014-02-22 03:15:00
9:35 PM,54.3,42.8,65,30.08,10.0,ESE,6.9,-,N/A,,Clear,110,2014-02-22 03:35:00
9:55 PM,54.1,43.2,66,30.08,10.0,ESE,8.1,-,N/A,,Clear,120,2014-02-22 03:55:00
10:15 PM,54.1,43.7,68,30.09,10.0,ESE,6.9,-,N/A,,Clear,110,2014-02-22 04:15:00
10:35 PM,54.5,44.4,69,30.08,10.0,ESE,8.1,-,N/A,,Clear,110,2014-02-22 04:35:00
10:55 PM,54.5,45.0,70,30.08,10.0,ESE,8.1,-,N/A,,Clear,120,2014-02-22 04:55:00
11:15 PM,54.5,45.7,72,30.07,10.0,ESE,9.2,-,N/A,,Clear,110,2014-02-22 05:15:00
11:35 PM,55.4,46.6,72,30.07,10.0,East,8.1,-,N/A,,Clear,100,2014-02-22 05:35:00
11:55 PM,55.0,46.8,74,30.07,10.0,East,8.1,-,N/A,,Clear,100,2014-02-22 05:55:00